Regional Weather Roundup
Issued by NWS Cleveland, OH

Home | Current Version | Previous Version | Graphics & Text | Print | Product List | Glossary On
Versions: 1 2 3 4 5 6 7 8 9 10 11 12 13 14 15 16 17 18 19 20 21 22 23 24 25 26 27 28 29 30 31 32 33 34 35 36 37 38 39 40 41 42 43 44 45 46 47 48 49 50
000
ASUS41 KCLE 290302
RWRCLE
OHIO REGIONAL WEATHER ROUNDUP
NATIONAL WEATHER SERVICE CLEVELAND, OH
1100 PM EDT SAT MAY 28 2016

NOTE: "FAIR" INDICATES FEW OR NO CLOUDS BELOW 12,000 FEET WITH NO
SIGNIFICANT WEATHER AND/OR OBSTRUCTIONS TO VISIBILITY.

OHZ001>008-015>018-024>027-034-035-043-044-290400-
   NORTHWEST OHIO

CITY           SKY/WX    TMP DP  RH WIND       PRES   REMARKS
DEFIANCE       CLOUDY    71  63  75 S7        30.04F
FINDLAY        CLEAR     69  61  75 S6        30.07S
TOLEDO EXPRESS CLOUDY    72  61  68 S5        30.05S
TOLEDO EXEC    CLOUDY    74  61  63 S6        30.06S
LIMA           CLOUDY    68  63  84 S6        30.08S
$$

OHZ009>014-019>023-028>033-038-089-290400-
   NORTHEAST OHIO

CITY           SKY/WX    TMP DP  RH WIND       PRES   REMARKS
CLE-HOPKINS    MOCLDY    73  64  73 S7        30.10S
CLE-LAKEFRONT  PTCLDY    75  64  68 SE7       30.06F
CUY CO. ARPT   PTCLDY    72  66  83 SE7       30.09S
LORAIN-ELYRIA  PTCLDY    70  66  87 S7        30.08S
ASHTABULA      MOCLDY    69  66  90 SE3       30.10F
AKRON-CANTON   MOCLDY    73  63  70 CALM      30.12S
WOOSTER        CLOUDY    66  62  87 SE3       30.11F
MANSFIELD      CLOUDY    69  67  93 CALM      30.11S
YOUNGSTOWN     CLOUDY    71  64  78 CALM      30.12R
$$

OHZ042-051>053-060>062-070>072-077>081-290400-
  SOUTHWEST OHIO

CITY           SKY/WX    TMP DP  RH WIND       PRES   REMARKS
CINC-COVINGTON MOCLDY    70  64  81 S3        30.09S
CINC-LUNKEN    PTCLDY    67  64  90 CALM      30.09S
HAMILTON       PTCLDY    70  64  81 CALM      30.09S
DAYTON         PTCLDY    72  63  73 S6        30.10S
WRIGHT-PAT AFB NOT AVBL
DAYTON GENERAL CLEAR     71  59  65 S5        30.09S
WILMINGTON     CLOUDY    72  63  73 SW3       30.11R
$$

OHZ036-037-039>041-045>050-054>059-063>069-073>076-082>088-290400-
  CENTRAL AND SOUTHEAST OHIO

CITY           SKY/WX    TMP DP  RH WIND       PRES   REMARKS
COLUMBUS       PTCLDY    69  66  90 CALM      30.09S
OSU AIRPORT    PTCLDY    71  65  81 S6        30.09S
BOLTON FIELD   NOT AVBL
RICKENBACK AFB NOT AVBL
NEWARK         CLEAR     69  66  90 CALM      30.09F
MARION         CLEAR     67  64  90 S7        30.10F
LANCASTER      CLEAR     68  66  93 CALM      30.10F
ZANESVILLE     CLEAR     72  65  78 E3        30.10F
NEW PHILLY     CLOUDY    72  64  76 E3        30.12R
$$




USA.gov is the U.S. government's official web portal to all federal, state and local government web resources and services.